{"data":{"norad_id":48692,"intl_designator":"2021-044BG","name":"STARLINK-2752","alt_names":[],"object_type":"PAYLOAD","status":"ACTIVE","operator":null,"country":"US","launch_date":"2021-05-26","launch_site_code":"AFETR","launch_vehicle":null,"mission":null,"orbit_class":"UNKNOWN","rcs_meters":null,"size_class":null,"mass_kg":null,"dimensions":null,"purposes":["comms"],"wikipedia_slug":null,"has_3d_model":false,"image_url":null,"decayed_at":null,"tle_current":{"epoch":"2026-09-19T23:19:04.983744Z","epoch_age_seconds":63899,"freshness":"FRESH","line1":"1 48692U 21044BG  26262.97158546  .00000639  00000+0  32360-4 0  9998","line2":"2 48692  53.1597 250.9494 0001000  83.2090 276.9026 15.31694349294133","mean_motion":15.31694349,"eccentricity":0.0001,"inclination_deg":53.1597,"raan_deg":250.9494,"arg_perigee_deg":83.209,"mean_anomaly_deg":276.9026,"bstar":3.236e-5,"rev_number":29413,"period_min":94.013534811311,"perigee_km":470.07195123032,"apogee_km":471.44172999845,"semimajor_km":6848.8938406144,"source":"CELESTRAK","updated_at":"2026-09-20T09:00:39.245315Z"}}}